{"data":{"norad_id":53323,"intl_designator":"2022-089A","name":"COSMOS 2558","alt_names":[],"object_type":"PAYLOAD","status":"ACTIVE","operator":null,"country":"CIS","launch_date":"2022-08-01","launch_site_code":"PLMSC","launch_vehicle":null,"mission":null,"orbit_class":"UNKNOWN","rcs_meters":null,"size_class":null,"mass_kg":null,"dimensions":null,"purposes":[],"wikipedia_slug":null,"has_3d_model":false,"image_url":null,"decayed_at":null,"tle_current":{"epoch":"2026-05-25T04:16:35.207328Z","epoch_age_seconds":56161,"freshness":"FRESH","line1":"1 53323U 22089A   26145.17818527  .00088202  00000+0  71874-3 0  9993","line2":"2 53323  97.2249 248.3880 0002238 155.3148 204.8222 15.70364540214211","mean_motion":15.7036454,"eccentricity":0.0002238,"inclination_deg":97.2249,"raan_deg":248.388,"arg_perigee_deg":155.3148,"mean_anomaly_deg":204.8222,"bstar":0.00071874,"rev_number":21421,"period_min":91.698453659683,"perigee_km":356.3468432308,"apogee_km":359.36187296269,"semimajor_km":6735.9913580967,"source":"CELESTRAK","updated_at":"2026-05-25T13:37:58.152418Z"}}}